Regional Weather Roundup
Issued by NWS

Home | Current Version | Previous Version | Graphics & Text | Print | Product List | Glossary On
Versions: 1 2 3 4 5 6 7 8 9 10 11 12 13 14 15 16 17 18 19 20 21 22 23 24 25 26 27 28 29 30 31 32 33 34 35 36 37 38 39 40 41 42 43 44 45 46 47 48 49 50
000
ASUS43 KLMK 300002
RWRKY
KENTUCKY REGIONAL WEATHER ROUNDUP
NATIONAL WEATHER SERVICE LOUISVILLE KY
800 PM EDT WED MAR 29 2017

NOTE "FAIR" INDICATES FEW OR NO CLOUDS BELOW 12,000 FEET
WITH NO SIGNIFICANT WEATHER AND/OR OBSTRUCTIONS TO VISIBILITY.

KYZ001>023-026-027-061>063-070>075-300100-
WESTERN AND SOUTH CENTRAL KENTUCKY

CITY           SKY/WX    TMP DP  RH WIND       PRES   REMARKS
PADUCAH        CLOUDY    72  58  61 E7        29.83S
HENDERSON      CLOUDY    63  54  72 NE8       29.89R
OWENSBORO      PTCLDY    68  55  63 E15       29.91S
HOPKINSVILLE   CLOUDY    73  59  61 E8        29.85S
BOWLING GREEN  CLEAR     71  55  56 E7        29.91F
GLASGOW        NOT AVBL
$$

KYZ024-025-028>034-038-045-046-053-300100-
NORTH CENTRAL KENTUCKY

CITY           SKY/WX    TMP DP  RH WIND       PRES   REMARKS
LOUISVILLE/SDF CLOUDY    64  48  56 E12       30.00S
LOUISVILLE/LOU PTCLDY    64  49  57 E12       30.01S
FORT KNOX      PTCLDY    63  51  66 E10       29.96F
$$

KYZ035>037-039>044-047>052-055>060-089>105-300100-
NORTHEAST KENTUCKY

CITY           SKY/WX    TMP DP  RH WIND       PRES   REMARKS
LEXINGTON      CLEAR     61  48  62 E7        30.03S
COVINGTON      MOCLDY    55  45  68 E14       30.07R
FRANKFORT      CLEAR     60  48  64 E8        30.01F
$$

KYZ054-064>069-076>088-106>120-300100-
SOUTHEAST KENTUCKY

CITY           SKY/WX    TMP DP  RH WIND       PRES   REMARKS
JACKSON        CLEAR     60  47  61 NE3       30.05F
LONDON         CLEAR     67  49  52 NE5       30.00F
SOMERSET       NOT AVBL
MIDDLESBORO    CLEAR     71  51  48 CALM      30.00S
MONTICELLO     CLEAR     67  54  63 N12G18    29.99F
$$




USA.gov is the U.S. government's official web portal to all federal, state and local government web resources and services.